Location: Baumgartsau
(48.4586°N, 14.0864°E)
Time: 14:56:33
(UTC+00:00)

BREEZE M DEB (TANK) - Pass Details

Date: 17 May 2021
Orbit: 296 x 11842 km, 49.5° (Epoch: 19 June)

Event Time Altitude Azimuth Distance (km) Brightness Sun altitude
Rises 20:28:09 0° 297° (WNW) 5,657 8.7 -14.0°
Reaches altitude 10° 20:30:39 10° 293° (WNW) 5,267 8.2 -14.3°
Maximum altitude 20:49:16 59° 221° (SW) 6,251 7.4 -16.0°
Enters shadow 21:43:08 21° 164° (SSE) 14,368 8.8 -19.9°
